DHX706P OMDW-OMDB

Flight info

Callsign DHX706P
Flight time 0h 10m
Altitude 10000
Route OMDW/30 LORID LORI4D LORID4D/30L
Aircraft B763/H-SDE3FGHIM3RWXYZ/LB1

Departure

Time 2026-04-20 23:57
Airport Al Maktoum International Airport (OMDW)

Arrival

Time 2026-04-21 00:08
Airport Dubai International Airport (OMDB)
Time Latitude Longitude Altitude Speed Heading
2026-04-20 23:55 25.34129 55.07781 8345 ft 371 kts 65°
2026-04-20 23:55 25.34757 55.10506 8098 ft 377 kts 86°
2026-04-20 23:55 25.34383 55.13418 7892 ft 381 kts 108°
2026-04-20 23:56 25.33177 55.16007 7686 ft 379 kts 127°
2026-04-20 23:56 25.31509 55.18108 7503 ft 366 kts 133°
2026-04-20 23:56 25.29763 55.20160 7363 ft 353 kts 133°
2026-04-20 23:56 25.28131 55.22109 7225 ft 341 kts 132°
2026-04-20 23:57 25.26562 55.24017 7134 ft 327 kts 131°
2026-04-20 23:57 25.25073 55.25841 7125 ft 312 kts 131°
2026-04-20 23:57 25.23674 55.27559 7105 ft 296 kts 131°
2026-04-20 23:57 25.22315 55.29228 7048 ft 299 kts 131°
2026-04-20 23:58 25.20902 55.30960 6860 ft 301 kts 131°
2026-04-20 23:58 25.19502 55.32675 6631 ft 298 kts 131°
2026-04-20 23:58 25.18192 55.34399 6381 ft 291 kts 123°
2026-04-20 23:58 25.17117 55.36276 6131 ft 286 kts 119°
2026-04-20 23:59 25.16120 55.38127 5790 ft 286 kts 119°
2026-04-20 23:59 25.15081 55.40040 5405 ft 279 kts 120°
2026-04-20 23:59 25.14093 55.41826 4979 ft 266 kts 120°
2026-04-20 23:59 25.13138 55.43526 4479 ft 256 kts 121°
2026-04-21 00:00 25.12220 55.45152 3983 ft 246 kts 121°
2026-04-21 00:00 25.11339 55.46708 3591 ft 234 kts 121°
2026-04-21 00:00 25.10457 55.48283 3130 ft 234 kts 120°
2026-04-21 00:00 25.09604 55.49818 2779 ft 238 kts 120°
2026-04-21 00:01 25.08738 55.51372 2419 ft 238 kts 120°
2026-04-21 00:01 25.07888 55.52896 2076 ft 225 kts 120°
2026-04-21 00:01 25.07188 55.54346 1997 ft 207 kts 103°
2026-04-21 00:01 25.07239 55.55868 2022 ft 200 kts 66°
2026-04-21 00:02 25.08095 55.57039 2014 ft 198 kts 34°
2026-04-21 00:02 25.09261 55.57848 2000 ft 198 kts 21°
2026-04-21 00:02 25.10594 55.57963 1998 ft 196 kts 344°
2026-04-21 00:02 25.11829 55.57381 2005 ft 196 kts 333°
2026-04-21 00:03 25.13043 55.56687 2007 ft 197 kts 332°
2026-04-21 00:03 25.14112 55.55986 1998 ft 197 kts 318°
2026-04-21 00:03 25.14976 55.54831 2006 ft 195 kts 307°
2026-04-21 00:03 25.15758 55.53593 2006 ft 196 kts 304°
2026-04-21 00:04 25.16468 55.52353 1988 ft 185 kts 302°
2026-04-21 00:04 25.17120 55.51179 1979 ft 176 kts 302°
2026-04-21 00:04 25.17753 55.50037 1983 ft 174 kts 303°
2026-04-21 00:04 25.18389 55.48886 2001 ft 177 kts 302°
2026-04-21 00:05 25.19033 55.47722 1730 ft 173 kts 302°
2026-04-21 00:05 25.19642 55.46620 1494 ft 166 kts 302°
2026-04-21 00:05 25.20246 55.45529 1311 ft 167 kts 302°
2026-04-21 00:05 25.20844 55.44448 1079 ft 162 kts 302°
2026-04-21 00:06 25.21421 55.43405 908 ft 157 kts 302°
2026-04-21 00:06 25.21956 55.42440 713 ft 158 kts 302°
2026-04-21 00:06 25.22526 55.41393 481 ft 158 kts 301°
2026-04-21 00:06 25.23092 55.40377 279 ft 157 kts 302°
2026-04-21 00:07 25.23627 55.39431 103 ft 157 kts 301°
2026-04-21 00:07 25.24163 55.38466 54 ft 134 kts 301°
2026-04-21 00:07 25.24544 55.37773 43 ft 82 kts 301°
2026-04-21 00:07 25.24759 55.37351 34 ft 51 kts 287°
2026-04-21 00:08 25.24790 55.37167 30 ft 34 kts 272°
2026-04-21 00:08 25.24793 55.37016 28 ft 13 kts 275°
2026-04-21 00:08 25.24821 55.36923 27 ft 17 kts 296°
2026-04-21 00:08 25.24853 55.36842 29 ft 17 kts 289°
2026-04-21 00:09 25.24880 55.36712 27 ft 17 kts 287°
2026-04-21 00:09 25.24933 55.36593 26 ft 17 kts 301°
2026-04-21 00:09 25.25017 55.36444 27 ft 17 kts 302°
2026-04-21 00:09 25.25060 55.36367 27 ft 17 kts 301°
2026-04-21 00:10 25.25123 55.36254 28 ft 17 kts 301°
2026-04-21 00:10 25.25179 55.36150 26 ft 17 kts 301°
2026-04-21 00:10 25.25242 55.36036 26 ft 17 kts 301°
2026-04-21 00:10 25.25303 55.35927 27 ft 17 kts 302°
2026-04-21 00:11 25.25365 55.35819 28 ft 17 kts 302°
2026-04-21 00:11 25.25423 55.35710 26 ft 16 kts 300°
2026-04-21 00:11 25.25481 55.35605 27 ft 16 kts 301°
2026-04-21 00:11 25.25537 55.35505 26 ft 16 kts 302°
2026-04-21 00:12 25.25591 55.35407 26 ft 16 kts 302°
2026-04-21 00:12 25.25650 55.35301 28 ft 16 kts 301°
2026-04-21 00:12 25.25708 55.35196 27 ft 16 kts 301°
2026-04-21 00:12 25.25762 55.35099 27 ft 16 kts 301°
2026-04-21 00:13 25.25858 55.35075 25 ft 16 kts 27°
2026-04-21 00:13 25.25950 55.35136 26 ft 16 kts 31°
2026-04-21 00:13 25.26041 55.35198 27 ft 16 kts 31°
2026-04-21 00:13 25.26127 55.35255 25 ft 11 kts 31°
2026-04-21 00:14 25.26172 55.35285 26 ft 0 kts 31°
2026-04-21 00:15 25.26232 55.35325 28 ft 24 kts 31°
2026-04-21 00:15 25.26370 55.35418 27 ft 18 kts 31°
2026-04-21 00:15 25.26468 55.35486 26 ft 16 kts 42°
2026-04-21 00:15 25.26473 55.35571 24 ft 12 kts 120°
2026-04-21 00:16 25.26431 55.35648 26 ft 12 kts 121°
2026-04-21 00:16 25.26389 55.35725 26 ft 12 kts 121°
2026-04-21 00:16 25.26347 55.35801 28 ft 12 kts 121°
2026-04-21 00:16 25.26307 55.35872 28 ft 12 kts 121°
2026-04-21 00:17 25.26265 55.35949 26 ft 12 kts 121°
2026-04-21 00:17 25.26237 55.35999 26 ft 5 kts 121°
2026-04-21 00:17 25.26234 55.36036 28 ft 5 kts 68°
2026-04-21 00:17 25.26259 55.36064 26 ft 5 kts 35°
2026-04-21 00:18 25.26287 55.36083 26 ft 5 kts 32°
2026-04-21 00:18 25.26291 55.36086 27 ft 0 kts 32°